[[{"header":{"parameterUnit":"m.s-1","parameterCategory":1,"la1":30.2991,"la2":30.254,"lo1":-89.0895,"lo2":-89.0444,"dy":0.0017,"dx":0.0017,"nx":28,"ny":28,"refTime":"2025-08-18T09:00:00:Z","depth":0,"parameterNumber":2,"parameterNumberName":"U-component_of_WINDS"},"data":[0,0,0,0,0,0,0,0,0,0,0,0,0,0,0,0,0,0,0,0,0,0,0,0,0,0,0,0,0,0,0,0,0,0,0,0,0,0,0,0,0,0,0,0,0,0,0,0,0,0,0,0,0,0,0,0,0,0,0.2554,0.2556,0,0.2709,0.271,0.2712,0.2829,0.283,0.2832,0.2833,0.2989,0.2992,0.2995,0,0,0,0,0,0,0,0,0,0,0,0,0,0.236,0.2363,0.2554,0.2556,0.2558,0.2708,0.2711,0.2713,0.2829,0.2831,0.2832,0.2833,0.2988,0.2992,0.2996,0,0,0,0,0,0,0,0,0,0,0,0,0,0.2472,0.2364,0.2554,0.2634,0.2643,0.2708,0.2711,0.2713,0.2829,0.2831,0.2832,0.2834,0.2987,0.2991,0.2996,0.2993,0,0,0.301,0.3013,0,0,0,0,0,0,0,0,0.2466,0.2479,0.2621,0.2629,0.2639,0.2752,0.27,0.2807,0.2829,0.2758,0.2833,0.2834,0.2909,0.292,0.2945,0.3,0.3007,0.3011,0.3014,0.3016,0.3017,0,0,0,0,0,0,0,0.2458,0.2473,0.2615,0.2622,0.2634,0.2663,0.2681,0.2721,0.2822,0.2765,0.2773,0.279,0.2914,0.294,0.295,0.3009,0.3011,0.3015,0.3018,0.302,0.3072,0.3071,0,0,0,0,0,0,0.2438,0.2466,0.261,0.262,0.2555,0.2665,0.2685,0.2714,0.2822,0.284,0.2789,0.2795,0.2931,0.2944,0.2956,0.2961,0.3016,0.302,0.3023,0.3074,0.3072,0.307,0,0,0,0,0,0,0.2433,0.245,0.2604,0.2546,0.2568,0.2667,0.2698,0.2716,0.2742,0.2841,0.2859,0.2797,0.2933,0.2949,0.2983,0.2967,0.3022,0.3027,0.3075,0.3073,0.3071,0.2968,0,0,0,0,0,0,0.2427,0.2447,0.2446,0.2545,0.257,0.2628,0.2697,0.2718,0.275,0.276,0.2853,0.287,0.2936,0.2976,0.2988,0.2975,0.303,0.3077,0.3074,0.3072,0.2974,0.2963,0.2954,0,0,0,0,0,0.242,0.2411,0.2446,0.2463,0.2571,0.2627,0.2642,0.2718,0.2749,0.2749,0.2813,0.2867,0.2967,0.2978,0.2993,0.2981,0.3078,0.3075,0.3072,0.2978,0.2965,0.2954,0,0,0,0,0,0,0.2306,0.2425,0.2465,0.2487,0.2547,0.2647,0.265,0.2701,0.2752,0.2759,0.2852,0.2872,0.2896,0.2943,0.2952,0.2985,0.303,0.303,0.2954,0.2942,0.2932,0.292,0.3034,0,0,0,0,0,0.2284,0.232,0.2421,0.2431,0.2459,0.2549,0.2576,0.263,0.2695,0.272,0.2786,0.2847,0.2892,0.292,0.2967,0.2982,0.3004,0.2981,0.2971,0.2963,0.2961,0.2974,0.2965,0.3059,0.306,0.306,0,0,0.2238,0.2307,0.2324,0.241,0.2462,0.2498,0.2569,0.2603,0.263,0.2725,0.2762,0.2813,0.2887,0.2911,0.2926,0.2951,0.294,0.2959,0.2951,0.2954,0.297,0.2961,0.2953,0.3057,0.3058,0.3058,0,0,0.2172,0.2228,0.2243,0.2295,0.2374,0.2434,0.2437,0.2531,0.2569,0.2608,0.2681,0.2715,0.279,0.2841,0.2876,0.2833,0.2885,0.2846,0.2794,0.2805,0.2798,0.2792,0.2777,0.277,0.2844,0.2844,0.2844,0,0.2104,0.216,0.2244,0.2274,0.2311,0.2401,0.2417,0.2463,0.2552,0.2576,0.2603,0.2702,0.2758,0.2797,0.2786,0.2812,0.282,0.2835,0.2792,0.2787,0.2782,0.2769,0.2764,0.2838,0.2839,0.284,0.284,0,0.2074,0.2112,0.2115,0.2201,0.2238,0.2261,0.2348,0.2376,0.2428,0.2485,0.2525,0.2596,0.266,0.2673,0.2723,0.272,0.2733,0.2775,0.2822,0.2767,0.2756,0.2752,0.2831,0.2833,0.2834,0.2836,0,0,0.1938,0.2073,0.2072,0.2113,0.2208,0.2239,0.2268,0.2331,0.2354,0.2413,0.2439,0.2503,0.2544,0.2584,0.2641,0.2651,0.2614,0.2692,0.2696,0.2675,0.2616,0.2583,0.2576,0.265,0.2649,0.2649,0.261,0,0.1887,0.1943,0.202,0.205,0.2087,0.2174,0.2199,0.226,0.2316,0.2355,0.2417,0.2461,0.2511,0.2536,0.255,0.2615,0.2603,0.2619,0.2675,0.2676,0.2653,0.257,0.2535,0.2495,0.2606,0.2605,0.2605,0,0.1834,0.1891,0.1924,0.2019,0.2037,0.2058,0.2124,0.2161,0.2233,0.2273,0.2319,0.2382,0.2417,0.246,0.251,0.2519,0.2547,0.2583,0.2584,0.2591,0.2636,0.2575,0.2484,0.2477,0.2599,0.26,0.26,0,0.1732,0.1817,0.1848,0.1881,0.1992,0.2005,0.2051,0.2125,0.2159,0.2217,0.2241,0.2302,0.2335,0.2381,0.2458,0.2482,0.25,0.255,0.2535,0.2533,0.2533,0.2532,0.2445,0.2552,0.2552,0.2552,0.2552,0,0.1666,0.1683,0.1804,0.1823,0.1846,0.1936,0.1956,0.201,0.2076,0.2108,0.2188,0.2216,0.2317,0.2357,0.2419,0.2452,0.2466,0.2499,0.2515,0.2492,0.2487,0.2511,0.2515,0.2551,0.2551,0.2551,0.2552,0,0.1555,0.1637,0.1677,0.178,0.1806,0.1818,0.1907,0.1929,0.1991,0.203,0.2045,0.2141,0.2193,0.2276,0.2352,0.2393,0.2415,0.2442,0.2391,0.24,0.2381,0.2381,0.2305,0.23,0.241,0.2409,0.2408,0,0.1507,0.1523,0.1628,0.1656,0.17,0.1743,0.178,0.1869,0.1904,0.1989,0.2001,0.206,0.2111,0.2191,0.2268,0.2327,0.2355,0.2325,0.2365,0.2341,0.2355,0.2353,0.2355,0.2315,0.2313,0.2312,0.231,0,0.1414,0.1455,0.1504,0.1567,0.1609,0.1663,0.1721,0.1739,0.1842,0.1877,0.1932,0.1972,0.2051,0.2109,0.2179,0.2228,0.2286,0.2298,0.2298,0.2273,0.2243,0.2259,0.2365,0.2299,0.23,0.2301,0.2301,0.2302,0.1333,0.1352,0.143,0.1483,0.1536,0.159,0.1617,0.1682,0.173,0.1802,0.1852,0.1904,0.1979,0.208,0.2126,0.2168,0.2194,0.2193,0.2193,0.2191,0.2183,0.2237,0.2182,0.2182,0.2182,0.2183,0.2183,0,0.1244,0.13,0.1347,0.1427,0.1469,0.1522,0.159,0.1622,0.1667,0.1731,0.1781,0.1845,0.1902,0.1985,0.2048,0.2066,0.2095,0.208,0.2079,0.209,0.2156,0.215,0.2056,0.2056,0.2056,0.2056,0.2056,0.2056,0.1203,0.1238,0.1288,0.1351,0.1406,0.1458,0.1493,0.1543,0.1595,0.1663,0.1712,0.1766,0.1838,0.1908,0.1963,0.1986,0.2006,0.1982,0.2013,0.2073,0.2085,0.2096,0.2091,0.1986,0.1986,0.1944,0.1943,0.1943]},{"header":{"parameterUnit":"m.s-1","parameterCategory":1,"la1":30.2991,"la2":30.254,"lo1":-89.0895,"lo2":-89.0444,"dy":0.0017,"dx":0.0017,"nx":28,"ny":28,"refTime":"2025-08-18T09:00:00:Z","depth":0,"parameterNumber":3,"parameterNumberName":"V-component_of_WINDS"},"data":[0,0,0,0,0,0,0,0,0,0,0,0,0,0,0,0,0,0,0,0,0,0,0,0,0,0,0,0,0,0,0,0,0,0,0,0,0,0,0,0,0,0,0,0,0,0,0,0,0,0,0,0,0,0,0,0,0,0,-2.4215,-2.4215,0,-2.4224,-2.4224,-2.4224,-2.4253,-2.4253,-2.4254,-2.4255,-2.426,-2.426,-2.4259,0,0,0,0,0,0,0,0,0,0,0,0,0,-2.4221,-2.422,-2.4215,-2.4215,-2.4215,-2.4224,-2.4224,-2.4224,-2.4253,-2.4253,-2.4254,-2.4255,-2.426,-2.426,-2.4259,0,0,0,0,0,0,0,0,0,0,0,0,0,-2.4223,-2.422,-2.4215,-2.4231,-2.4232,-2.4224,-2.4224,-2.4224,-2.4252,-2.4253,-2.4254,-2.4255,-2.426,-2.426,-2.4259,-2.4235,0,0,-2.4257,-2.4257,0,0,0,0,0,0,0,0,-2.4222,-2.4222,-2.4228,-2.423,-2.4231,-2.4238,-2.4228,-2.4228,-2.4252,-2.4245,-2.4255,-2.4256,-2.4252,-2.4252,-2.4251,-2.4235,-2.4236,-2.4257,-2.4256,-2.4256,-2.4256,0,0,0,0,0,0,0,-2.4222,-2.4222,-2.4218,-2.4228,-2.423,-2.4236,-2.4238,-2.4228,-2.4242,-2.4245,-2.4247,-2.4248,-2.4253,-2.4252,-2.4252,-2.4236,-2.4257,-2.4256,-2.4256,-2.4255,-2.42,-2.4199,0,0,0,0,0,0,-2.422,-2.4222,-2.4218,-2.4219,-2.4229,-2.4236,-2.4237,-2.4235,-2.4243,-2.4245,-2.4247,-2.425,-2.4252,-2.4252,-2.4252,-2.4223,-2.4256,-2.4255,-2.4255,-2.4201,-2.42,-2.4199,0,0,0,0,0,0,-2.422,-2.422,-2.4218,-2.4221,-2.4221,-2.4234,-2.4232,-2.4235,-2.4234,-2.4244,-2.4247,-2.4244,-2.4253,-2.4253,-2.4239,-2.4224,-2.4255,-2.4254,-2.4203,-2.4201,-2.42,-2.4167,0,0,0,0,0,0,-2.422,-2.422,-2.4211,-2.4221,-2.4221,-2.4206,-2.4231,-2.4234,-2.4233,-2.4236,-2.4242,-2.4244,-2.4254,-2.424,-2.4239,-2.4223,-2.4254,-2.4204,-2.4202,-2.42,-2.4169,-2.4164,-2.416,0,0,0,0,0,-2.422,-2.4201,-2.421,-2.421,-2.4211,-2.4205,-2.4205,-2.4218,-2.4232,-2.4223,-2.423,-2.4243,-2.4227,-2.4238,-2.4237,-2.4221,-2.4205,-2.4203,-2.42,-2.4171,-2.4165,-2.416,0,0,0,0,0,0,-2.4187,-2.4202,-2.4213,-2.4196,-2.4199,-2.421,-2.4198,-2.4212,-2.421,-2.4212,-2.4228,-2.4229,-2.4213,-2.4217,-2.4229,-2.4199,-2.4218,-2.4215,-2.4196,-2.4191,-2.4186,-2.4184,-2.4253,0,0,0,0,0,-2.4178,-2.4173,-2.4186,-2.417,-2.4171,-2.4185,-2.4183,-2.4193,-2.4196,-2.4197,-2.4203,-2.4205,-2.42,-2.4196,-2.4192,-2.4171,-2.4172,-2.416,-2.4155,-2.4151,-2.4148,-2.4135,-2.413,-2.4191,-2.4191,-2.4191,0,0,-2.4159,-2.4166,-2.4162,-2.4163,-2.4167,-2.416,-2.4185,-2.4177,-2.4172,-2.4196,-2.4183,-2.4188,-2.4191,-2.4173,-2.4165,-2.4175,-2.4131,-2.4148,-2.4145,-2.4143,-2.4132,-2.4126,-2.4121,-2.419,-2.419,-2.419,0,0,-2.4119,-2.4126,-2.4112,-2.4116,-2.4122,-2.4131,-2.4128,-2.4137,-2.4141,-2.413,-2.4147,-2.4141,-2.4133,-2.4134,-2.4133,-2.4097,-2.4109,-2.4096,-2.407,-2.4058,-2.4053,-2.4049,-2.4033,-2.4028,-2.4093,-2.4093,-2.4092,0,-2.4093,-2.4085,-2.4103,-2.4094,-2.4093,-2.4117,-2.4103,-2.4106,-2.4109,-2.4108,-2.412,-2.411,-2.4114,-2.4096,-2.4087,-2.4087,-2.4083,-2.4093,-2.4053,-2.4048,-2.4045,-2.403,-2.4025,-2.4091,-2.4091,-2.4091,-2.4091,0,-2.4052,-2.4046,-2.4035,-2.4039,-2.4038,-2.4026,-2.4042,-2.4039,-2.405,-2.4058,-2.4045,-2.4052,-2.4049,-2.4046,-2.4057,-2.403,-2.4036,-2.405,-2.4069,-2.4037,-2.4023,-2.4018,-2.4088,-2.4089,-2.4089,-2.409,0,0,-2.3988,-2.4005,-2.4,-2.4002,-2.4011,-2.4006,-2.3996,-2.3995,-2.3991,-2.3994,-2.3984,-2.3978,-2.3992,-2.3991,-2.4002,-2.3992,-2.3961,-2.4008,-2.4008,-2.3996,-2.3929,-2.3916,-2.3909,-2.3971,-2.397,-2.3969,-2.3928,0,-2.3948,-2.3932,-2.3949,-2.3928,-2.3922,-2.3946,-2.3937,-2.3941,-2.395,-2.3945,-2.3954,-2.3948,-2.3968,-2.3967,-2.3959,-2.3966,-2.3947,-2.397,-2.3959,-2.3959,-2.3954,-2.3903,-2.3888,-2.3849,-2.3923,-2.3923,-2.3922,0,-2.3899,-2.3901,-2.388,-2.3891,-2.3889,-2.3881,-2.3881,-2.3878,-2.3883,-2.389,-2.389,-2.3905,-2.3895,-2.3916,-2.3901,-2.3917,-2.3914,-2.3917,-2.3916,-2.3913,-2.3935,-2.3895,-2.3838,-2.383,-2.3914,-2.3915,-2.3915,0,-2.3851,-2.3848,-2.3835,-2.3837,-2.385,-2.3844,-2.3849,-2.3856,-2.3854,-2.3855,-2.3854,-2.3853,-2.3852,-2.3851,-2.3864,-2.388,-2.3847,-2.387,-2.385,-2.385,-2.3839,-2.3839,-2.3777,-2.3843,-2.3843,-2.3843,-2.3843,0,-2.3802,-2.3788,-2.3814,-2.3805,-2.379,-2.3811,-2.3794,-2.3802,-2.3808,-2.3801,-2.3823,-2.3815,-2.3836,-2.383,-2.3841,-2.3826,-2.3826,-2.383,-2.3832,-2.3825,-2.3824,-2.3821,-2.3822,-2.3842,-2.3842,-2.3842,-2.3843,0,-2.3744,-2.3761,-2.3748,-2.3763,-2.3767,-2.3754,-2.3767,-2.3759,-2.377,-2.3761,-2.376,-2.3776,-2.3771,-2.3786,-2.3783,-2.379,-2.3767,-2.3776,-2.3765,-2.3766,-2.3744,-2.3745,-2.3675,-2.3666,-2.3741,-2.374,-2.374,0,-2.371,-2.37,-2.3714,-2.3712,-2.3716,-2.3712,-2.3711,-2.3732,-2.3729,-2.3736,-2.3727,-2.3725,-2.3723,-2.3713,-2.3724,-2.3722,-2.3728,-2.3704,-2.3727,-2.3721,-2.3724,-2.3723,-2.3721,-2.3698,-2.3697,-2.3696,-2.3695,0,-2.3647,-2.3657,-2.3655,-2.3657,-2.3655,-2.3658,-2.3661,-2.3657,-2.368,-2.3676,-2.3672,-2.3671,-2.3669,-2.3665,-2.3666,-2.367,-2.3685,-2.3689,-2.3683,-2.3674,-2.3667,-2.3668,-2.3748,-2.3689,-2.369,-2.369,-2.3691,-2.3691,-2.3597,-2.3589,-2.3598,-2.3596,-2.3601,-2.3604,-2.3598,-2.3609,-2.3606,-2.3607,-2.362,-2.3612,-2.3619,-2.3622,-2.3625,-2.3619,-2.363,-2.3622,-2.362,-2.3617,-2.3612,-2.3672,-2.362,-2.362,-2.362,-2.362,-2.362,0,-2.3532,-2.354,-2.3539,-2.3543,-2.3541,-2.356,-2.3565,-2.3562,-2.3556,-2.3562,-2.356,-2.3555,-2.3552,-2.3564,-2.3562,-2.3555,-2.3562,-2.3553,-2.3552,-2.3552,-2.3604,-2.3607,-2.3548,-2.3548,-2.3548,-2.3548,-2.3548,-2.3548,-2.3498,-2.3484,-2.3496,-2.3485,-2.3493,-2.3487,-2.3488,-2.3491,-2.3496,-2.3489,-2.3487,-2.3496,-2.3504,-2.3504,-2.3501,-2.3505,-2.3502,-2.349,-2.3495,-2.3542,-2.3549,-2.3555,-2.3559,-2.349,-2.349,-2.3444,-2.3444,-2.3443]}]]